Location: Bailleul
(50.3375°N, 2.8513°E)
Time: 10:31:52
(UTC+00:00)

Cosmos 1953 - Pass Details

Date: 16 June 2021
Orbit: 538 x 557 km, 82.5° (Epoch: 27 July)

Event Time Altitude Azimuth Distance (km) Brightness Sun altitude
Rises 21:05:13 0° 350° (N) 2,754 7.2 -7.8°
Reaches altitude 10° 21:07:24 10° 351° (N) 1,855 6.1 -8.0°
Maximum altitude 21:11:30 83° 80° (E) 569 2.3 -8.4°
Drops below altitude 10° 21:15:33 10° 169° (S) 1,838 4.4 -8.8°
Enters shadow 21:15:40 - 169° (S) 1,883 4.5 -8.8°
